Location: Melbourne
(37.8170°S, 144.9670°E)
Time: 05:17:32
(UTC+10:00)

Vanguard 1 Rocket - Visible Passes

Search period start: 24 July 2016 00:00
Search period end: 03 August 2016 00:00
Orbit: 652 x 4225 km, 34.3° (Epoch: 22 July)

Date Brightness Start Highest point End Pass type
(mag) Time Alt. Az. Time Alt. Az. Time Alt. Az.
24 Jul 8.5 19:22:24 10° W 19:36:28 69° NNW 19:39:42 40° ENE visible
24 Jul 10.2 21:54:18 10° W 21:57:01 17° W 21:57:01 17° W visible
25 Jul 9.2 18:06:55 10° W 18:24:34 76° N 18:32:43 13° E visible
25 Jul 8.8 20:39:59 10° W 20:50:02 45° NW 20:50:02 45° NW visible
26 Jul 8.7 19:25:08 10° W 19:39:26 64° NNW 19:43:04 36° NE visible
26 Jul 10.3 21:57:46 10° W 22:00:22 16° WNW 22:00:22 16° WNW visible
27 Jul 9.3 18:09:32 10° W 18:27:34 75° N 18:36:07 11° ENE visible
27 Jul 9.1 20:42:55 10° W 20:53:20 38° NW 20:53:26 38° NNW visible
28 Jul 9.0 19:27:51 10° W 19:42:19 57° NNW 19:46:31 31° NE visible
28 Jul 10.4 22:01:43 10° W 22:03:50 13° WNW 22:03:50 13° WNW visible
29 Jul 9.4 18:12:10 10° W 18:30:30 72° NNW 18:39:32 10° ENE visible
29 Jul 9.4 20:45:57 10° W 20:55:55 31° NW 20:56:57 30° NNW visible
30 Jul 9.3 19:30:35 10° W 19:45:04 50° NNW 19:50:06 25° NNE visible
31 Jul 9.5 18:14:47 10° W 18:33:22 67° NNW 18:42:37 10° ENE visible
31 Jul 9.7 20:49:10 10° W 20:58:21 25° NW 21:00:36 22° NNW visible
01 Aug 9.7 19:33:21 10° W 19:47:39 43° NW 19:53:50 18° NNE visible
02 Aug 9.7 18:17:24 10° W 18:36:07 61° NNW 18:45:35 10° NE visible
02 Aug 10.1 20:52:46 10° W 21:00:38 19° NW 21:04:26 15° NNW visible
